Preview of NWS' New Version of Forecast
This preview is not operational and should not be used for support decisions.

Regional Weather Roundup (RWR)

Issued by Gray - Portland, ME (GYX)

                            
000
ASUS41 KGYX 180405
RWRGYX
WEATHER ROUNDUP FOR MAINE AND NEW HAMPSHIRE
NATIONAL WEATHER SERVICE GRAY ME
1200 AM EDT SUN AUG 18 2019

MEZ002-005-006-010-012-015-018-020-021-024-026-027-029-180500-
MAINE
  
CITY           SKY/WX    TMP DP  RH WIND       PRES   REMARKS
PORTLAND       LGT RAIN  67  65  93 SE9       30.01F FOG              
SANFORD        LGT RAIN  67  66  97 S6        30.00F                  
BAR HARBOR     CLOUDY    62  61  96 CALM      30.06F                  
WISCASSET      FOG       65  64  97 SE3       30.04S VSB 3/4          
ROCKLAND       CLOUDY    63  61  94 SE6       30.04S FOG              
FRYEBURG       CLOUDY    67  64  90 CALM      30.02S                  
LEWISTONAUBURN LGT RAIN  65  65 100 SE5       30.02F FOG              
AUGUSTA        FOG       64  64 100 S6        30.04F VSB 1/2          
WATERVILLE     FOG       64  63  96 CALM      30.01F VSB 1            
BANGOR         CLOUDY    65  63  93 S7        30.05F FOG              
GREENVILLE       N/A     62  62 100 VRB3      30.02F                  
MILLINOCKET    CLOUDY    65  61  87 VRB5      30.04F                  
HOULTON        CLOUDY    64  61  90 S5        30.02S                  
PRESQUE ISLE   CLOUDY    65  62  90 S6        30.03S                  
FRENCHVILLE    CLOUDY    63  60  90 S5        30.02S                  
CARIBOU        CLOUDY    65  62  90 S3        30.01S                  
$$

NHZ002-005-008-009-011-012-014-180500-
NEW HAMPSHIRE
  
CITY           SKY/WX    TMP DP  RH WIND       PRES   REMARKS
PORTSMOUTH     LGT RAIN  67  67  99 CALM      29.99F FOG              
ROCHESTER      CLOUDY    67  65  93 SE6       30.00S                  
NASHUA         MOCLDY    69  69 100 CALM      30.01S                  
MANCHESTER     MOCLDY    69  68  96 SE5       29.99S                  
CONCORD        MOCLDY    66  65  96 CALM      30.01R                  
LACONIA        FAIR      66  65  96 W6        30.03R                  
PLYMOUTH       CLOUDY    65  64  94 CALM      30.01R                  
BERLIN         MOCLDY    67  63  87 CALM      30.01F                  
WHITEFIELD     FAIR      66  64  93 W5        30.00S                  
JAFFREY        MOCLDY    67  65  93 CALM      30.05R FOG              
KEENE          MOCLDY    66  66 100 CALM      30.03R                  
LEBANON        CLOUDY    67  64  90 CALM      30.00S                  
MT WASHINGTON  FOG       52  52 100 SW22G32     N/A  VSB 1/16         
$$

VTZ005-007-008-180500-
VERMONT
  
CITY           SKY/WX    TMP DP  RH WIND       PRES   REMARKS
ST JOHNSBURY     N/A     66  66 100 MISG      29.98S                  
MONTPELIER     CLOUDY    65  64  97 VRB5      30.04S                  
BURLINGTON     FAIR      67  64  90 CALM      29.96F                  
$$

MAZ007-012-024-CTZ003-RIZ002-NYZ038-NYZ072-180500-
SOUTHERN NEW ENGLAND AND NY
  
CITY           SKY/WX    TMP DP  RH WIND       PRES   REMARKS
BOSTON         CLOUDY    74  66  76 VRB5G18   30.01S                  
WORCESTER      CLOUDY    71  71 100 S7        30.04R                  
NANTUCKET      FOG       67  67 100 E5        30.00F VSB 1/2          
PROVIDENCE     CLOUDY    73  72  96 S7        30.01S FOG              
HARTFORD       LGT RAIN  70  67  90 W7        30.01S                  
ALBANY         MOCLDY    68  65  90 CALM      30.00R                  
NEW YORK CITY  MOCLDY    77  72  84 S7        29.97F                  
$$

ANZ081-ANZ082-ANZ150-NHZ014-MEZ023>029-180500-
COASTAL MARINE OBSERVATIONS
  
STATION/POSITION TIME  TEMP    WIND        PRES    WAVE
                       AIR SEA DIR/SP/G            HT/PER
                 (UTC) (F)     (DEG/KT/KT) (MB)    (FT/S)
MATINICUS ROCK   0350   60                 1016.5F
ISLE OF SHOALS   0300   66     120/  7/  7 1016.0F
JEFFREYS LEDGE   0338      67                N/A     3/ 7
CASHES LEDGE BUO 0250   65 65  120/  6/  8 1017.7    3/ 7
GEORGES BANK BUO 0340   72 70  100/  8/ 10 1016.8F
$$

.............KEY..............
   WCI - WIND CHILL
   TC  - TEMPERATURE IN CELSIUS
   VSB - VISIBILITY IN MILES
   HX  - HEAT INDEX
   FAIR- INDICATES FEW OR NO CLOUDS BELOW 12,000 FT, WITH NO 
         SIGNIFICANT WEATHER AND/OR OBSTRUCTIONS TO VISIBILITY.